Weather History for KHEF - February, 2014

Change the Weather History Date:

Wednesday, February 19, 2014

  Actual Average Record
Temperature  
Mean Temperature 44 °F -  
Max Temperature 60 °F 46 °F 71 °F (1997)
Min Temperature 28 °F 25 °F 8 °F (2015)
Degree Days  
Heating Degree Days 21    
Moisture  
Dew Point 32 °F    
Average Humidity 74    
Maximum Humidity 100    
Minimum Humidity 35    
Precipitation  
Precipitation 0.00 in - - ()
Sea Level Pressure  
Sea Level Pressure 29.97 in    
Wind  
Wind Speed 3 mph (WNW)    
Max Wind Speed 15 mph    
Max Gust Speed 18 mph    
Visibility 10 miles    
Events Rain    
Averages and records for this station are not official NWS values.
T = Trace of Precipitation, MM = Missing Value Source: NWS Daily Summary

Daily Weather History Graph

Daily Weather History Graph

Search for Another Location

Airport or City:

Trip Planner

Search our weather history database for the weather conditions in past years. The results will help you decide how hot, cold, wet, or windy it might be!

Date:

Astronomy

Feb. 19, 2014 Rise Set
Actual Time 6:56 AM EST 5:52 PM EST
Civil Twilight 6:29 AM EST 6:19 PM EST
Nautical Twilight 5:58 AM EST 6:50 PM EST
Astronomical Twilight 5:27 AM EST 7:21 PM EST
Moon 10:40 PM EST (2/19) 9:04 AM EST (2/19)
Length of Visible Light 11h 50m
Length of Day
10h 56m
Waning Gibbous, 80% of the Moon is Illuminated
Feb 19
Waning Gibbous
Feb 22
Last Quarter
Mar 1
New
Mar 8
First Quarter
Mar 16
Full

Hourly Weather History & Observations

Time (EST) Temp. Windchill Dew Point Humidity Pressure Visibility Wind Dir Wind Speed Gust Speed Precip Events Conditions
12:15 AM 30.2 °F - 28.4 °F 93% 30.06 in 10.0 mi Calm Calm - N/A   Clear
12:35 AM 30.2 °F - 28.4 °F 93% 30.06 in 10.0 mi Calm Calm - N/A   Clear
12:55 AM 28.4 °F - 28.4 °F 100% 30.05 in 10.0 mi Calm Calm - N/A   Clear
1:15 AM 28.4 °F - 26.6 °F 93% 30.05 in 10.0 mi Calm Calm - N/A   Clear
1:35 AM 28.4 °F - 26.6 °F 93% 30.04 in 10.0 mi Calm Calm - N/A   Clear
1:55 AM 28.4 °F - 26.6 °F 93% 30.03 in 10.0 mi Calm Calm - N/A   Clear
2:15 AM 28.4 °F - 26.6 °F 93% 30.02 in 10.0 mi Calm Calm - N/A   Clear
2:35 AM 28.4 °F - 26.6 °F 93% 30.01 in 10.0 mi Calm Calm - N/A   Clear
2:55 AM 28.4 °F - 26.6 °F 93% 29.99 in 10.0 mi Calm Calm - N/A   Clear
3:15 AM 28.4 °F - 26.6 °F 93% 29.98 in 10.0 mi Calm Calm - N/A   Clear
3:35 AM 28.4 °F - 26.6 °F 93% 29.97 in 10.0 mi Calm Calm - N/A   Clear
3:55 AM 28.4 °F - 28.4 °F 100% 29.95 in 10.0 mi Calm Calm - N/A   Clear
4:15 AM 28.4 °F - 28.4 °F 100% 29.95 in 10.0 mi Calm Calm - N/A   Scattered Clouds
4:35 AM 28.4 °F - 28.4 °F 100% 29.94 in 10.0 mi Calm Calm - N/A   Overcast
4:55 AM 30.2 °F 25.4 °F 28.4 °F 93% 29.93 in 10.0 mi WNW 4.6 mph - N/A   Overcast
5:15 AM 30.2 °F - 30.2 °F 100% 29.92 in 10.0 mi Calm Calm - N/A   Overcast
5:35 AM 32.0 °F - 30.2 °F 93% 29.91 in 10.0 mi Calm Calm - N/A   Overcast
5:55 AM 32.0 °F - 30.2 °F 93% 29.89 in 10.0 mi Calm Calm - N/A   Overcast
6:15 AM 33.8 °F 30.8 °F 30.2 °F 87% 29.89 in 10.0 mi West 3.5 mph - N/A   Overcast
6:50 AM 33.8 °F - 32.0 °F 93% 29.87 in 10.0 mi Calm Calm - N/A   Overcast
8:50 AM 42.8 °F 38.6 °F 33.8 °F 70% 29.85 in 6.0 mi South 6.9 mph - N/A Rain Light Rain
9:55 AM 42.8 °F 39.3 °F 41.0 °F 93% 29.84 in 4.0 mi South 5.8 mph - N/A Rain Light Rain
10:45 AM 44.6 °F 43.1 °F 44.6 °F 100% 29.82 in 10.0 mi SSW 3.5 mph - N/A   Overcast
11:45 AM 48.2 °F - 44.6 °F 87% 29.79 in 10.0 mi SW 10.4 mph 18.4 mph N/A   Clear
12:45 PM 53.6 °F - 42.8 °F 67% 29.77 in 10.0 mi WSW 9.2 mph - N/A   Clear
1:45 PM 55.4 °F - 44.6 °F 67% 29.72 in 10.0 mi SW 9.2 mph - N/A   Clear
2:45 PM 60.8 °F - 46.4 °F 59% 29.72 in 10.0 mi SW 6.9 mph - N/A   Scattered Clouds
3:45 PM 60.8 °F - 46.4 °F 59% 29.74 in 10.0 mi WSW 8.1 mph - N/A   Partly Cloudy
4:55 PM 57.2 °F - 42.8 °F 59% 29.81 in 10.0 mi NW 6.9 mph - N/A   Mostly Cloudy
5:45 PM 55.4 °F - 39.2 °F 54% 29.86 in 10.0 mi WNW 3.5 mph - N/A   Clear
6:55 PM 53.6 °F - 26.6 °F 35% 29.96 in 10.0 mi NW 9.2 mph - N/A   Clear
7:15 PM 51.8 °F - 26.6 °F 38% 29.98 in 10.0 mi WNW 10.4 mph - N/A   Clear
7:35 PM 51.8 °F - 26.6 °F 38% 29.99 in 10.0 mi NW 12.7 mph - N/A   Clear
7:55 PM 50.0 °F - 26.6 °F 40% 30.00 in 10.0 mi NW 15.0 mph - N/A   Clear
8:15 PM 51.8 °F - 28.4 °F 41% 30.02 in 10.0 mi NW 13.8 mph - N/A   Clear
8:35 PM 48.2 °F - 28.4 °F 46% 30.05 in 10.0 mi NW 6.9 mph - N/A   Clear
8:55 PM 48.2 °F - 30.2 °F 50% 30.07 in 10.0 mi NW 9.2 mph - N/A   Clear
9:15 PM 48.2 °F - 30.2 °F 50% 30.07 in 10.0 mi NNW 11.5 mph - N/A   Clear
9:35 PM 46.4 °F 43.5 °F 30.2 °F 53% 30.09 in 10.0 mi NW 5.8 mph - N/A   Clear
9:55 PM 46.4 °F 45.2 °F 30.2 °F 53% 30.10 in 10.0 mi NNW 3.5 mph - N/A   Clear
10:15 PM 46.4 °F 43.5 °F 30.2 °F 53% 30.12 in 10.0 mi North 5.8 mph - N/A   Clear
10:35 PM 44.6 °F 39.7 °F 32.0 °F 61% 30.12 in 10.0 mi NNW 9.2 mph - N/A   Clear
10:55 PM 44.6 °F - 30.2 °F 57% 30.13 in 10.0 mi Calm Calm - N/A   Clear
11:15 PM 44.6 °F 40.7 °F 30.2 °F 57% 30.14 in 10.0 mi North 6.9 mph - N/A   Clear
11:35 PM 42.8 °F 38.0 °F 30.2 °F 61% 30.14 in 10.0 mi NNW 8.1 mph - N/A   Clear
11:55 PM 42.8 °F 40.1 °F 30.2 °F 61% 30.14 in 10.0 mi North 4.6 mph - N/A   Clear